[[{"header":{"parameterUnit":"m.s-1","parameterCategory":1,"la1":30.2991,"la2":30.254,"lo1":-89.0895,"lo2":-89.0444,"dy":0.0017,"dx":0.0017,"nx":28,"ny":28,"refTime":"2023-07-18T09:00:00:Z","depth":0,"parameterNumber":2,"parameterNumberName":"U-component_of_WINDS"},"data":[0,0,0,0,0,0,0,0,0,0,0,0,0,0,0,0,0,0,0,0,0,0,0,0,0,0,0,0,0,0,0,0,0,0,0,0,0,0,0,0,0,0,0,0,0,0,0,0,0,0,0,0,0,0,0,0,0,0,3.1984,3.1985,0,3.2042,3.2043,3.2043,3.1983,3.1981,3.1979,3.1976,3.2035,3.2039,3.2043,0,0,0,0,0,0,0,0,0,0,0,0,0,3.1819,3.1822,3.1984,3.1985,3.1985,3.2042,3.2043,3.2043,3.1984,3.1981,3.1978,3.1975,3.2034,3.2039,3.2043,0,0,0,0,0,0,0,0,0,0,0,0,0,3.1885,3.1823,3.1984,3.1962,3.1961,3.2042,3.2043,3.2044,3.1984,3.1981,3.1977,3.1974,3.2033,3.2038,3.2044,3.2148,0,0,3.2061,3.2063,0,0,0,0,0,0,0,0,3.1881,3.1891,3.1965,3.1964,3.1963,3.2002,3.2006,3.2079,3.1985,3.1975,3.1976,3.1972,3.2027,3.2033,3.2051,3.2151,3.2154,3.2061,3.2065,3.2067,3.2069,0,0,0,0,0,0,0,3.1877,3.1888,3.2007,3.1966,3.1965,3.1949,3.1954,3.2019,3.202,3.1976,3.1972,3.1979,3.2026,3.2046,3.2052,3.2155,3.2061,3.2066,3.207,3.2072,3.2337,3.2341,0,0,0,0,0,0,3.1875,3.1885,3.2005,3.2008,3.1912,3.1955,3.1961,3.1993,3.2019,3.202,3.1982,3.1976,3.2038,3.2046,3.2054,3.2174,3.2067,3.2072,3.2076,3.2334,3.2338,3.2342,0,0,0,0,0,0,3.1871,3.1886,3.2003,3.1945,3.1959,3.1961,3.1997,3.1996,3.2016,3.2024,3.2024,3.2003,3.2036,3.2046,3.2124,3.2176,3.2075,3.208,3.2329,3.2335,3.234,3.2418,0,0,0,0,0,0,3.1867,3.1885,3.1926,3.1947,3.1962,3.2073,3.2001,3.1999,3.2026,3.2019,3.2043,3.2044,3.2034,3.2116,3.213,3.2181,3.2084,3.2325,3.2332,3.2338,3.2411,3.2425,3.2438,0,0,0,0,0,3.1861,3.1947,3.1928,3.1943,3.2013,3.2076,3.2085,3.2071,3.203,3.207,3.2075,3.2043,3.2169,3.2125,3.214,3.2194,3.2321,3.233,3.2338,3.2404,3.2422,3.2438,0,0,0,0,0,0,3.1932,3.1949,3.1929,3.2024,3.2049,3.2066,3.2116,3.2091,3.2128,3.212,3.2102,3.2108,3.2189,3.22,3.2151,3.2294,3.2238,3.225,3.2284,3.2301,3.2314,3.2308,3.2089,0,0,0,0,0,3.1959,3.2009,3.2021,3.2103,3.2117,3.2114,3.2141,3.2128,3.2153,3.2163,3.2174,3.2199,3.2243,3.2273,3.2315,3.2413,3.2415,3.2457,3.2471,3.2482,3.2491,3.2539,3.2556,3.2369,3.2369,3.2369,0,0,3.2015,3.203,3.2063,3.2118,3.2135,3.2185,3.2123,3.2181,3.2217,3.2172,3.2245,3.2254,3.228,3.2367,3.2406,3.2378,3.2543,3.2492,3.2501,3.2504,3.2549,3.2567,3.2582,3.2375,3.2374,3.2373,0,0,3.2141,3.2159,3.2227,3.2246,3.2273,3.227,3.2287,3.2307,3.231,3.2383,3.2349,3.2392,3.2471,3.2489,3.2509,3.2639,3.261,3.2654,3.2724,3.2771,3.2785,3.2798,3.284,3.2856,3.2664,3.2664,3.2664,0,3.2206,3.2281,3.2266,3.2324,3.2347,3.2308,3.2375,3.2394,3.2434,3.2451,3.2419,3.2513,3.2529,3.2617,3.2649,3.2668,3.2683,3.2649,3.2784,3.2797,3.2809,3.2849,3.2865,3.2668,3.2668,3.2667,3.2667,0,3.2358,3.2411,3.2462,3.25,3.2529,3.2592,3.2584,3.2616,3.26,3.26,3.2673,3.269,3.2732,3.2753,3.2739,3.2839,3.282,3.2787,3.273,3.2832,3.2869,3.2884,3.2675,3.2674,3.2672,3.2671,0,0,3.2531,3.2557,3.2576,3.259,3.2616,3.2655,3.2715,3.2756,3.2781,3.281,3.2857,3.2923,3.2891,3.2914,3.2902,3.2943,3.3039,3.2905,3.2905,3.2925,3.3145,3.3167,3.3185,3.3022,3.3025,3.3027,3.3141,0,3.2654,3.2757,3.2743,3.2841,3.2887,3.2849,3.2901,3.2921,3.2923,3.2961,3.2962,3.3007,3.2965,3.2977,3.3017,3.3019,3.3083,3.3012,3.3063,3.3065,3.3053,3.3205,3.3229,3.3336,3.3156,3.3159,3.3161,0,3.2812,3.2844,3.2946,3.296,3.2979,3.3026,3.3059,3.3098,3.3119,3.3117,3.314,3.312,3.3177,3.3121,3.3198,3.315,3.317,3.3174,3.3178,3.3179,3.3116,3.3207,3.3371,3.3385,3.3184,3.3182,3.318,0,3.2922,3.2991,3.3059,3.3074,3.3094,3.3126,3.3136,3.3154,3.3178,3.3208,3.3223,3.326,3.3279,3.3307,3.3296,3.3257,3.3374,3.3318,3.3371,3.3371,3.3395,3.3393,3.356,3.3414,3.3414,3.3414,3.3413,0,3.3059,3.3122,3.3108,3.315,3.3218,3.3202,3.3269,3.3275,3.3291,3.3331,3.3303,3.3342,3.3326,3.3364,3.3356,3.3418,3.3428,3.3426,3.3422,3.3426,3.3426,3.3437,3.3428,3.3418,3.3417,3.3416,3.3416,0,3.3192,3.3187,3.3258,3.327,3.3275,3.3324,3.3334,3.3372,3.3371,3.3422,3.3434,3.3431,3.3473,3.3465,3.3513,3.3507,3.3584,3.3573,3.3576,3.3572,3.3624,3.3617,3.3801,3.3822,3.3667,3.3668,3.3669,0,3.3278,3.3325,3.3342,3.3366,3.3378,3.342,3.3443,3.3428,3.3453,3.3479,3.3513,3.3553,3.3583,3.3652,3.3654,3.3689,3.3676,3.3738,3.3681,3.3682,3.3672,3.3667,3.367,3.3748,3.375,3.3751,3.3753,0,3.343,3.3424,3.3459,3.3492,3.352,3.3546,3.3568,3.359,3.3576,3.3606,3.3648,3.3672,3.3718,3.3757,3.3789,3.3797,3.3772,3.3771,3.3784,3.3787,3.3785,3.3782,3.3602,3.3766,3.3765,3.3764,3.3763,3.3762,3.3539,3.3578,3.3594,3.3632,3.3647,3.3668,3.3703,3.3705,3.374,3.3776,3.3765,3.3812,3.3829,3.3869,3.3882,3.3917,3.3894,3.3914,3.3918,3.3923,3.3927,3.3782,3.3923,3.3923,3.3923,3.3922,3.3922,0,3.3686,3.3694,3.3729,3.376,3.379,3.3764,3.3787,3.3813,3.3854,3.3872,3.3902,3.3948,3.3984,3.3988,3.4022,3.4049,3.4038,3.4058,3.4054,3.4056,3.3948,3.3931,3.4066,3.4066,3.4066,3.4066,3.4066,3.4066,3.3765,3.3826,3.3822,3.3889,3.3897,3.3942,3.3956,3.3975,3.3988,3.4041,3.407,3.4073,3.4084,3.4118,3.4149,3.4149,3.4161,3.4185,3.418,3.4079,3.4064,3.405,3.4034,3.4189,3.4189,3.4284,3.4285,3.4286]},{"header":{"parameterUnit":"m.s-1","parameterCategory":1,"la1":30.2991,"la2":30.254,"lo1":-89.0895,"lo2":-89.0444,"dy":0.0017,"dx":0.0017,"nx":28,"ny":28,"refTime":"2023-07-18T09:00:00:Z","depth":0,"parameterNumber":3,"parameterNumberName":"V-component_of_WINDS"},"data":[0,0,0,0,0,0,0,0,0,0,0,0,0,0,0,0,0,0,0,0,0,0,0,0,0,0,0,0,0,0,0,0,0,0,0,0,0,0,0,0,0,0,0,0,0,0,0,0,0,0,0,0,0,0,0,0,0,0,1.1996,1.1997,0,1.2042,1.2042,1.2043,1.2033,1.2032,1.2031,1.203,1.2077,1.2079,1.2081,0,0,0,0,0,0,0,0,0,0,0,0,0,1.1899,1.1901,1.1996,1.1997,1.1997,1.2042,1.2042,1.2043,1.2033,1.2032,1.2031,1.203,1.2076,1.2079,1.2081,0,0,0,0,0,0,0,0,0,0,0,0,0,1.1942,1.1901,1.1996,1.1998,1.1998,1.2041,1.2042,1.2043,1.2033,1.2032,1.203,1.2029,1.2075,1.2078,1.2081,1.2126,0,0,1.2091,1.2092,0,0,0,0,0,0,0,0,1.194,1.1946,1.1997,1.1998,1.1998,1.203,1.2025,1.2071,1.2033,1.202,1.203,1.2028,1.2062,1.2066,1.2078,1.2128,1.213,1.2091,1.2093,1.2094,1.2095,0,0,0,0,0,0,0,1.1937,1.1944,1.2014,1.1997,1.1998,1.1995,1.2,1.2034,1.2048,1.2021,1.202,1.2026,1.2062,1.2075,1.2079,1.2131,1.2091,1.2094,1.2096,1.2097,1.2218,1.2219,0,0,0,0,0,0,1.1933,1.1941,1.2013,1.2016,1.1965,1.1998,1.2004,1.2021,1.2047,1.205,1.2027,1.2025,1.207,1.2075,1.208,1.2133,1.2094,1.2097,1.2099,1.2217,1.2218,1.222,0,0,0,0,0,0,1.1931,1.194,1.2011,1.1978,1.1987,1.2001,1.2021,1.2023,1.2035,1.2052,1.2054,1.2037,1.2069,1.2076,1.2114,1.2135,1.2098,1.2101,1.2215,1.2217,1.2219,1.224,0,0,0,0,0,0,1.1929,1.1939,1.1957,1.1979,1.1989,1.2045,1.2022,1.2025,1.204,1.2039,1.2062,1.2065,1.2069,1.211,1.2117,1.2138,1.2104,1.2213,1.2216,1.2218,1.2237,1.2242,1.2247,0,0,0,0,0,1.1925,1.1962,1.1958,1.1967,1.2011,1.2046,1.2052,1.2056,1.2042,1.206,1.207,1.2064,1.2131,1.2114,1.2122,1.2144,1.2212,1.2215,1.2218,1.2235,1.2241,1.2247,0,0,0,0,0,0,1.1942,1.1965,1.1961,1.2005,1.2024,1.2044,1.2067,1.2062,1.2085,1.2083,1.2087,1.2092,1.2131,1.2141,1.2122,1.2188,1.2169,1.2174,1.218,1.2186,1.219,1.2187,1.2106,0,0,0,0,0,1.1951,1.1978,1.1995,1.2033,1.2042,1.2053,1.2068,1.2069,1.2089,1.2096,1.211,1.2128,1.2153,1.217,1.2194,1.2239,1.2243,1.2258,1.2262,1.2266,1.227,1.2293,1.2299,1.223,1.223,1.223,0,0,1.197,1.1986,1.2002,1.2037,1.2051,1.2078,1.2059,1.2089,1.2108,1.2101,1.2137,1.2147,1.2168,1.2209,1.2228,1.2219,1.229,1.227,1.2273,1.2275,1.2297,1.2303,1.2309,1.2232,1.2232,1.2231,0,0,1.2018,1.2033,1.2065,1.2079,1.2101,1.2107,1.2114,1.2135,1.2141,1.2178,1.2172,1.2195,1.2239,1.2253,1.2266,1.2317,1.2312,1.2324,1.2349,1.2371,1.2376,1.2381,1.2398,1.2404,1.2329,1.2329,1.2329,0,1.2039,1.2079,1.2082,1.2111,1.2126,1.2119,1.2151,1.2165,1.2193,1.2203,1.2193,1.2246,1.226,1.2303,1.2315,1.2327,1.2335,1.2322,1.2375,1.238,1.2384,1.2401,1.2407,1.233,1.233,1.233,1.233,0,1.2103,1.2131,1.2154,1.2181,1.2198,1.2228,1.2235,1.2252,1.2251,1.2258,1.2294,1.231,1.2336,1.2347,1.2347,1.239,1.2383,1.2374,1.2356,1.2392,1.2408,1.2414,1.2332,1.2332,1.2331,1.2331,0,0,1.2165,1.2191,1.22,1.2211,1.2233,1.2254,1.2283,1.2308,1.2322,1.2341,1.2365,1.2401,1.2392,1.2407,1.2408,1.2427,1.2464,1.2415,1.2416,1.2423,1.2511,1.2518,1.2525,1.2461,1.2462,1.2463,1.2509,0,1.2215,1.2266,1.2268,1.2315,1.234,1.2332,1.2358,1.2373,1.238,1.2401,1.2409,1.2433,1.242,1.2429,1.2447,1.2456,1.2482,1.2453,1.2482,1.2483,1.2477,1.2533,1.2541,1.2584,1.2515,1.2516,1.2517,0,1.228,1.23,1.2349,1.2365,1.2375,1.2398,1.242,1.2441,1.2458,1.2461,1.2477,1.2474,1.2503,1.2483,1.2522,1.2502,1.2514,1.252,1.2522,1.2525,1.2502,1.2537,1.2598,1.2604,1.2526,1.2526,1.2525,0,1.2319,1.2358,1.2392,1.2402,1.2422,1.2438,1.2447,1.2463,1.2477,1.2496,1.2505,1.2527,1.254,1.2556,1.256,1.2545,1.2598,1.2579,1.2601,1.2601,1.2613,1.2613,1.2676,1.2621,1.2621,1.2621,1.2621,0,1.2374,1.2404,1.2409,1.243,1.2463,1.2464,1.2497,1.2505,1.2518,1.254,1.2535,1.2555,1.2558,1.2579,1.2582,1.2613,1.2619,1.2622,1.2622,1.2622,1.2622,1.263,1.2627,1.2623,1.2623,1.2622,1.2622,0,1.2424,1.2429,1.2465,1.248,1.2485,1.2508,1.2521,1.254,1.2546,1.2573,1.2579,1.2587,1.2611,1.2616,1.2645,1.2646,1.2683,1.2681,1.2677,1.2677,1.2699,1.2696,1.277,1.2779,1.2719,1.2719,1.272,0,1.2458,1.2481,1.2498,1.2512,1.2522,1.2544,1.2558,1.256,1.2574,1.2594,1.2611,1.2634,1.2653,1.2691,1.2699,1.272,1.2718,1.2742,1.2722,1.272,1.2718,1.2716,1.2718,1.2747,1.2747,1.2748,1.2748,0,1.2519,1.252,1.254,1.2561,1.2577,1.2594,1.261,1.2621,1.2624,1.2641,1.2665,1.2679,1.2707,1.273,1.2751,1.276,1.2754,1.2755,1.2761,1.2761,1.2758,1.2759,1.2688,1.2753,1.2753,1.2752,1.2752,1.2752,1.2562,1.2581,1.2596,1.2618,1.2629,1.2643,1.2662,1.2669,1.2689,1.2711,1.2711,1.2737,1.2751,1.2778,1.2788,1.2808,1.28,1.2809,1.2811,1.2814,1.2815,1.2755,1.2811,1.2811,1.2811,1.2811,1.2811,0,1.2622,1.263,1.2651,1.2672,1.2689,1.2681,1.2698,1.2712,1.2735,1.2749,1.2767,1.2793,1.2814,1.2824,1.2844,1.2858,1.2856,1.2864,1.2863,1.2864,1.2821,1.2814,1.2865,1.2865,1.2865,1.2865,1.2865,1.2865,1.2655,1.2686,1.2688,1.2725,1.2733,1.2758,1.2767,1.278,1.279,1.282,1.2838,1.2843,1.2854,1.2876,1.2894,1.2896,1.2904,1.2913,1.2913,1.2873,1.2868,1.2862,1.2855,1.2914,1.2914,1.2955,1.2955,1.2955]}]]